| time (UTC) | temp C | wind direction | speed KPH | gust KPH | rain 1hr cm | rain 24hr cm | rain mn cm | humidity % | barometer mb |
| 20260904231542 | 37 | 186 | 1.6 | 8.0 | 0.00 | 0.00 | 0.00 | 47 | 1007.7 |
| 20260904230041 | 37 | 147 | 1.6 | 8.0 | 0.00 | 0.00 | 0.00 | 47 | 1007.8 |
| 20260904224542 | 37 | 134 | 1.6 | 11.3 | 0.00 | 0.00 | 0.00 | 48 | 1007.9 |
| 20260904223037 | 37 | 109 | 1.6 | 9.7 | 0.00 | 0.00 | 0.00 | 46 | 1007.9 |
| 20260904221536 | 37 | 125 | 3.2 | 12.9 | 0.00 | 0.00 | 0.00 | 47 | 1008.0 |
| 20260904220054 | 37 | 115 | 1.6 | 14.5 | 0.00 | 0.00 | 0.00 | 46 | 1008.1 |
| 20260904214537 | 37 | 158 | 3.2 | 11.3 | 0.00 | 0.00 | 0.00 | 48 | 1008.2 |
| 20260904213031 | 36 | 117 | 4.8 | 14.5 | 0.00 | 0.00 | 0.00 | 48 | 1008.3 |
| 20260904211535 | 37 | 147 | 4.8 | 12.9 | 0.00 | 0.00 | 0.00 | 48 | 1008.4 |
| 20260904210039 | 37 | 127 | 1.6 | 12.9 | 0.00 | 0.00 | 0.00 | 48 | 1008.6 |
| 20260904204524 | 37 | 41 | 4.8 | 9.7 | 0.00 | 0.00 | 0.00 | 48 | 1008.7 |
| 20260904203036 | 37 | 227 | 4.8 | 14.5 | 0.00 | 0.00 | 0.00 | 48 | 1009.0 |
| 20260904201516 | 37 | 207 | 1.6 | 11.3 | 0.00 | 0.00 | 0.00 | 50 | 1009.2 |
| 20260904200014 | 37 | 177 | 3.2 | 12.9 | 0.00 | 0.00 | 0.00 | 51 | 1009.4 |
| 20260904194512 | 36 | 227 | 3.2 | 11.3 | 0.00 | 0.00 | 0.00 | 53 | 1009.7 |
| 20260904193009 | 36 | 158 | 3.2 | 14.5 | 0.00 | 0.00 | 0.00 | 53 | 1009.9 |
| 20260904191502 | 35 | 89 | 1.6 | 16.1 | 0.00 | 0.00 | 0.00 | 56 | 1010.0 |
| 20260904190100 | 35 | 66 | 3.2 | 12.9 | 0.00 | 0.00 | 0.00 | 58 | 1010.3 |
| 20260904184559 | 35 | 81 | 0.0 | 12.9 | 0.00 | 0.00 | 0.00 | 59 | 1010.4 |
| 20260904183117 | 35 | 144 | 4.8 | 12.9 | 0.00 | 0.00 | 0.00 | 58 | 1010.6 |
| 20260904181554 | 34 | 97 | 0.0 | 8.0 | 0.00 | 0.00 | 0.00 | 60 | 1010.8 |
| 20260904180113 | 33 | 105 | 3.2 | 11.3 | 0.00 | 0.00 | 0.00 | 61 | 1011.0 |
| 20260904174556 | 33 | 167 | 3.2 | 19.3 | 0.00 | 0.00 | 0.00 | 60 | 1011.2 |
| 20260904173047 | 32 | 184 | 4.8 | 16.1 | 0.00 | 0.00 | 0.00 | 59 | 1011.5 |
| 20260904171552 | 33 | 167 | 4.8 | 11.3 | 0.00 | 0.00 | 0.00 | 61 | 1011.7 |
| 20260904170047 | 32 | 206 | 3.2 | 12.9 | 0.00 | 0.00 | 0.00 | 65 | 1011.8 |
| 20260904164540 | 31 | 243 | 3.2 | 14.5 | 0.00 | 0.00 | 0.00 | 67 | 1011.9 |
| 20260904163036 | 31 | 103 | 3.2 | 14.5 | 0.00 | 0.00 | 0.00 | 69 | 1012.0 |
| 20260904161534 | 31 | 220 | 6.4 | 20.9 | 0.00 | 0.00 | 0.00 | 69 | 1012.0 |
| 20260904160030 | 30 | 247 | 8.0 | 14.5 | 0.00 | 0.00 | 0.00 | 72 | 1011.9 |
| 20260904154528 | 29 | 216 | 4.8 | 14.5 | 0.00 | 0.00 | 0.00 | 75 | 1011.9 |
| 20260904153023 | 28 | 180 | 4.8 | 16.1 | 0.00 | 0.00 | 0.00 | 79 | 1011.8 |
| 20260904151522 | 28 | 236 | 6.4 | 12.9 | 0.00 | 0.00 | 0.00 | 79 | 1011.9 |
| 20260904150030 | 28 | 194 | 1.6 | 14.5 | 0.00 | 0.00 | 0.00 | 83 | 1011.8 |
| 20260904144515 | 27 | 193 | 3.2 | 9.7 | 0.00 | 0.00 | 0.00 | 87 | 1011.8 |
| 20260904143012 | 26 | 123 | 0.0 | 8.0 | 0.00 | 0.00 | 0.00 | 88 | 1011.8 |
| 20260904141512 | 26 | 137 | 1.6 | 8.0 | 0.00 | 0.00 | 0.00 | 89 | 1011.9 |
| 20260904140007 | 26 | 153 | 1.6 | 6.4 | 0.00 | 0.00 | 0.00 | 90 | 1011.8 |
| 20260904134503 | 26 | 114 | 0.0 | 8.0 | 0.00 | 0.00 | 0.00 | 90 | 1011.6 |
| 20260904133006 | 26 | 122 | 0.0 | 4.8 | 0.00 | 0.00 | 0.00 | 90 | 1011.5 |
| 20260904131600 | 26 | 144 | 0.0 | 8.0 | 0.00 | 0.00 | 0.00 | 90 | 1011.4 |
| 20260904130057 | 25 | 131 | 0.0 | 11.3 | 0.00 | 0.00 | 0.00 | 90 | 1011.1 |
| 20260904124604 | 25 | 93 | 1.6 | 8.0 | 0.00 | 0.00 | 0.00 | 90 | 1011.0 |
| 20260904123054 | 25 | 137 | 1.6 | 9.7 | 0.00 | 0.00 | 0.00 | 90 | 1010.9 |
| 20260904121554 | 25 | 100 | 0.0 | 8.0 | 0.00 | 0.00 | 0.00 | 90 | 1010.8 |
| 20260904120059 | 25 | 114 | 0.0 | 6.4 | 0.00 | 0.00 | 0.00 | 90 | 1010.7 |
| 20260904114550 | 25 | 131 | 0.0 | 6.4 | 0.00 | 0.00 | 0.00 | 90 | 1010.6 |
| 20260904113050 | 25 | 105 | 1.6 | 9.7 | 0.00 | 0.00 | 0.00 | 90 | 1010.6 |
| 20260904111549 | 25 | 117 | 0.0 | 6.4 | 0.00 | 0.00 | 0.00 | 90 | 1010.5 |
| 20260904110047 | 25 | 143 | 0.0 | 4.8 | 0.00 | 0.00 | 0.00 | 90 | 1010.6 |
| 20260904104547 | 25 | 118 | 0.0 | 4.8 | 0.00 | 0.00 | 0.00 | 89 | 1010.3 |
| 20260904103048 | 25 | 134 | 0.0 | 6.4 | 0.00 | 0.00 | 0.00 | 89 | 1010.3 |
| 20260904101556 | 25 | 158 | 0.0 | 8.0 | 0.00 | 0.00 | 0.00 | 89 | 1010.3 |
| 20260904100046 | 25 | 154 | 0.0 | 8.0 | 0.00 | 0.00 | 0.00 | 89 | 1010.2 |
| 20260904094550 | 25 | 113 | 0.0 | 3.2 | 0.00 | 0.00 | 0.00 | 89 | 1010.1 |
| 20260904093047 | 25 | 125 | 0.0 | 4.8 | 0.00 | 0.00 | 0.00 | 88 | 1010.2 |
| 20260904091543 | 26 | 123 | 1.6 | 4.8 | 0.00 | 0.00 | 0.00 | 88 | 1010.2 |
| 20260904090045 | 26 | 132 | 0.0 | 4.8 | 0.00 | 0.00 | 0.00 | 87 | 1010.1 |
| 20260904084541 | 26 | 106 | 1.6 | 6.4 | 0.00 | 0.00 | 0.00 | 87 | 1010.2 |
| 20260904083040 | 26 | 133 | 0.0 | 3.2 | 0.00 | 0.00 | 0.00 | 87 | 1010.1 |
| 20260904081539 | 26 | 148 | 0.0 | 1.6 | 0.00 | 0.00 | 0.00 | 87 | 1010.1 |
| 20260904080040 | 26 | 185 | 0.0 | 1.6 | 0.00 | 0.00 | 0.00 | 86 | 1010.0 |
| 20260904074537 | 26 | 152 | 0.0 | 6.4 | 0.00 | 0.00 | 0.00 | 85 | 1010.1 |
| 20260904073040 | 26 | 124 | 1.6 | 6.4 | 0.00 | 0.00 | 0.00 | 85 | 1010.1 |
| 20260904071535 | 26 | 191 | 0.0 | 8.0 | 0.00 | 0.00 | 0.00 | 84 | 1010.2 |
| 20260904070042 | 26 | 180 | 0.0 | 9.7 | 0.00 | 0.00 | 0.00 | 84 | 1010.2 |
| 20260904064540 | 26 | 177 | 0.0 | 6.4 | 0.00 | 0.00 | 0.00 | 83 | 1010.3 |
| 20260904063035 | 26 | 160 | 0.0 | 6.4 | 0.00 | 0.00 | 0.00 | 83 | 1010.4 |
| 20260904061538 | 26 | 243 | 1.6 | 6.4 | 0.00 | 0.00 | 0.00 | 82 | 1010.5 |
| 20260904060051 | 26 | 176 | 1.6 | 4.8 | 0.00 | 0.00 | 0.00 | 81 | 1010.5 |
| 20260904054539 | 26 | 117 | 1.6 | 9.7 | 0.00 | 0.00 | 0.00 | 79 | 1010.5 |
| 20260904053032 | 26 | 189 | 0.0 | 11.3 | 0.00 | 0.00 | 0.00 | 78 | 1010.4 |
| 20260904051525 | 26 | 129 | 3.2 | 8.0 | 0.00 | 0.00 | 0.00 | 77 | 1010.3 |
| 20260904050036 | 26 | 178 | 1.6 | 8.0 | 0.00 | 0.00 | 0.00 | 76 | 1010.2 |
| 20260904044526 | 27 | 109 | 0.0 | 4.8 | 0.00 | 0.00 | 0.00 | 75 | 1010.2 |
| 20260904043020 | 27 | 111 | 1.6 | 8.0 | 0.00 | 0.00 | 0.00 | 74 | 1010.1 |
| 20260904041522 | 27 | 195 | 1.6 | 8.0 | 0.00 | 0.00 | 0.00 | 73 | 1010.1 |
| 20260904040035 | 27 | 128 | 1.6 | 9.7 | 0.00 | 0.00 | 0.00 | 74 | 1010.1 |
| 20260904034521 | 27 | 121 | 1.6 | 14.5 | 0.00 | 0.00 | 0.00 | 74 | 1010.2 |
| 20260904033017 | 27 | 120 | 0.0 | 12.9 | 0.00 | 0.00 | 0.00 | 74 | 1010.2 |
| 20260904031522 | 28 | 117 | 1.6 | 9.7 | 0.00 | 0.00 | 0.00 | 73 | 1010.2 |
| 20260904030016 | 28 | 346 | 1.6 | 12.9 | 0.00 | 0.00 | 0.00 | 73 | 1010.2 |
| 20260904024516 | 28 | 105 | 3.2 | 8.0 | 0.00 | 0.00 | 0.00 | 73 | 1009.9 |
| 20260904023019 | 28 | 134 | 0.0 | 9.7 | 0.00 | 0.00 | 0.00 | 73 | 1009.7 |
| 20260904021527 | 28 | 101 | 3.2 | 11.3 | 0.00 | 0.00 | 0.00 | 74 | 1009.6 |
| 20260904020015 | 28 | 109 | 1.6 | 12.9 | 0.00 | 0.00 | 0.00 | 73 | 1009.1 |
| 20260904014514 | 29 | 164 | 3.2 | 11.3 | 0.00 | 0.00 | 0.00 | 72 | 1008.9 |
| 20260904013013 | 30 | 74 | 3.2 | 9.7 | 0.00 | 0.00 | 0.00 | 69 | 1008.7 |
| 20260904011514 | 30 | 148 | 3.2 | 17.7 | 0.00 | 0.00 | 0.00 | 68 | 1008.4 |
| 20260904010013 | 30 | 99 | 1.6 | 14.5 | 0.00 | 0.00 | 0.00 | 67 | 1008.1 |
| 20260904004516 | 31 | 135 | 4.8 | 12.9 | 0.00 | 0.00 | 0.00 | 67 | 1008.2 |
| 20260904003021 | 31 | 214 | 3.2 | 14.5 | 0.00 | 0.00 | 0.00 | 67 | 1008.1 |
| 20260904001511 | 31 | 134 | 3.2 | 19.3 | 0.00 | 0.00 | 0.00 | 66 | 1008.0 |
| 20260904000011 | 31 | 89 | 4.8 | 16.1 | 0.00 | 0.00 | 0.00 | 66 | 1007.9 |
| 20260903234510 | 32 | 178 | 4.8 | 14.5 | 0.00 | 0.00 | 0.00 | 65 | 1007.8 |
| 20260903233016 | 32 | 160 | 1.6 | 12.9 | 0.00 | 0.00 | 0.00 | 64 | 1007.7 |